Regional Weather Roundup
Issued by NWS Wakefield, VA

Home | Current Version | Previous Version | Graphics & Text | Print | Product List | Glossary On
Versions: 1 2 3 4 5 6 7 8 9 10 11 12 13 14 15 16 17 18 19 20 21 22 23 24 25 26 27
000
ASUS41 KAKQ 222015
RWRAKQ

REGIONAL WEATHER ROUNDUP
NATIONAL WEATHER SERVICE WAKEFIELD VA
400 PM EDT SAT APR 22 2017

Note: "fair" indicates few or no clouds below 12,000 feet with no
significant weather and/or obstructions to visibility. * = Denotes
station may not report precipitation (e.g., rain,snow,etc.),
thunder or fog.

VAZ042-051-052>054-056-222100-
NORTHERN VIRGINIA

CITY           SKY/WX    TMP DP  RH WIND       PRES   REMARKS
WASH NATIONAL  LGT RAIN  56  53  90 N10       29.96R
DULLES         LGT RAIN  51  48  89 N13G21    29.96F
FORT BELVOIR   LGT RAIN  55  51  88 N6        29.96R
QUANTICO       LGT RAIN  56  56 100 N10       29.96S
FREDERICKSBRG* HVY RAIN  54  54 100 N7        29.93F
STAFFORD*      HVY RAIN  52  52 100 N10       29.98S
WARRENTON      RAIN      54  49  85 NW8       29.97R
CULPEPER*      RAIN      53  51  94 N10       29.98R
MANASSAS*      LGT RAIN  53  51  93 N10       29.97S
LEESBURG*      RAIN      52  52 100 N9        29.98S
WINCHESTER     RAIN      46  45  93 N3        30.00R
FRONT ROYAL*   CLOUDY    48  48 100 CALM      30.00R
LURAY*         LGT RAIN  50  48  93 CALM      30.00R
$$

VAZ048-049-060>072-079>083-222100-
CENTRAL AND SOUTH CENTRAL VIRGINIA

CITY           SKY/WX    TMP DP  RH WIND       PRES   REMARKS
RICHMOND       CLOUDY    60  58  92 N15       29.87F
CHESTERFIELD*  CLOUDY   N/A N/A N/A N12       29.88F
PETERSBURG*    LGT RAIN  61  58  91 NE13G18   29.86F
HANOVER        CLOUDY    56  54  93 N7        29.92S FOG
TAPPAHANNOCK*  LGT RAIN  60  60 100 N6        29.91S
QUINTON*       CLOUDY    60  60 100 N6        29.87F
CHARLOTTSVILLE RAIN      54  52  93 NE9       29.93F FOG
GORDONSVILLE*  CLOUDY    51  50  96 N9        29.95R
ORANGE*        LGT RAIN  50  50 100 NE9       29.95S
LOUISA*        RAIN      55  54  94 N9        29.92F
BUMPASS*       CLOUDY    52  52 100 N7        29.92F
FARMVILLE*     TSTM      56  56  97 N7        29.90R
CREWE*         CLOUDY    57  57 100 N9G16     29.89R
FORT PICKETT*  CLOUDY   N/A N/A N/A N15       29.86R
CHASE CITY*    CLOUDY    68  66  94 N14G26    29.83R
CLARKSVILLE*   MOCLDY    77  68  73 N5        29.79S
SOUTH HILL*    CLOUDY    77  67  70 CALM      29.84F
LAWRENCEVILLE* CLOUDY    72  65  80 N8        29.79F
EMPORIA*       CLOUDY    72  64  78 E5        29.80F
$$

VAZ088>098-222100-
SOUTHEAST VIRGINIA

CITY           SKY/WX    TMP DP  RH WIND       PRES   REMARKS
NORFOLK        RAIN      61  56  83 NE15G22   29.84S
VIRGINIA BEACH CLOUDY    58  54  86 NE16      29.84S
NORFOLK NAVAL  DRIZZLE   62  57  83 E13       29.86F
WEST POINT*    CLOUDY    61  58  90 N8        29.88F
SALUDA*        CLOUDY    59  58  99 NE7       29.88F
NEWPORT NEWS   CLOUDY    62  58  86 NE10G20   29.85F
LANGLEY AFB    CLOUDY    62  60  94 NE16      29.84F FOG
FORT EUSTIS    CLOUDY    66  61  82 NE8       29.83F
WILLIAMSBURG*  CLOUDY    64  61  88 NE10G16   29.85F VSB 3/4
HR EXEC AP*    CLOUDY    64  59  82 E10       29.81S
FRANKLIN*      MOSUNNY   79  64  60 CALM      29.78F
US460-WAKEFLD  LGT RAIN  64  62  93 VRB5      29.83S FOG
$$

VAZ020-022-025-037-045-222100-
WEST CENTRAL AND SOUTHWEST VIRGINIA

CITY           SKY/WX    TMP DP  RH WIND       PRES   REMARKS
STAUNTON*      DRIZZLE   50  48  93 NE10      29.98S
WAYNESBORO*    CLOUDY    50  50 100 N8        29.96S
HOT SPRINGS VA LGT RAIN  48  46  93 E5        29.95S VSB<1/4
LYNCHBURG      LGT RAIN  56  55  97 NE12      29.89F
DANVILLE       CLOUDY    67  62  84 NW16G35   29.84R
SOUTH BOSTON*  MOCLDY    70  63  78 N17G36    29.82R
MARTINSVILLE   CLOUDY    62  60  94 N3        29.85F
ROANOKE        CLOUDY    61  59  93 NE13      29.89F
BLACKSBURG     DRIZZLE   58  55  89 CALM      29.93F
DUBLIN*        LGT RAIN  59  53  79 N5        29.91F
MARION*        CLOUDY    63  57  81 W14       29.93F
HILLSVILLE*    CLOUDY    62  56  79 W9G18     29.90S
RICHLANDS*     CLOUDY    54  32  43 NW3       29.93R HAZE
WISE*          FOG       54  54 100 N6        29.94F VSB<1/4
ABINGDON*      CLOUDY    64  60  88 NW7       29.91F
$$

MDZ021>025-VAZ099-100-222100-
SOUTHERN MARYLAND AND THE DELMARVA PENINSULA

CITY           SKY/WX    TMP DP  RH WIND       PRES   REMARKS
PATUXENT RIVER CLOUDY    57  57 100 NE14G24   29.92S
BAY BRIDGE APT LGT RAIN  54  52  94 NE7       29.94F FOG
LEONARDTOWN    CLOUDY    55  54  94 N5        29.94S
DOVER          CLOUDY    54  54  99 N10       29.92F
GEORGETOWN     LGT RAIN  56  53  90 MISG      29.93F FOG
EASTON         DRIZZLE   55  50  82 MISG      29.98S
CAMBRIDGE      CLOUDY    57  54  88 N7        29.93R FOG
SALISBURY      CLOUDY    54  54 100 NE8       29.92S
OCEAN CITY     LGT RAIN  52  50  93 NE12      29.92F FOG
WALLOPS ISLAND CLOUDY    54  53  97 MISG      29.92R
ACCOMACK*      CLOUDY    57  55  92 NE9       29.89S
$$

NCZ012>017-030>032-222100-
NORTH CENTRAL AND EASTERN NORTH CAROLINA

CITY           SKY/WX    TMP DP  RH WIND       PRES   REMARKS
ROANOKE RAPIDS FAIR      79  68  69 N3        29.78F
RALEIGH        PTSUNNY   85  58  39 SW20      29.79F
ELIZABETH CITY LGT RAIN  77  67  71 W9        29.80F
AHOSKIE*         N/A     83  64  51 S5        29.77F
EDENTON*       CLOUDY    87  62  42 SW12      29.79F
CURRITUCK*     HVY RAIN  74  66  77 E10G20    29.82S
KILL DEVIL HLS CLOUDY    81  61  50 CALM      29.80F
MANTEO         CLOUDY    80  69  69 S14G23    29.81F
CAPE HATTERAS  NOT AVBL
TARBORO*       NOT AVBL
GOLDSBORO      SUNNY     88  56  33 SW16G22   29.78F
WASHINGTON     SUNNY     87  59  39 SW16G22   29.80F
GREENVILLE     MOSUNNY   86  59  39 SW13G20   29.82F
NEW BERN       PTSUNNY   87  63  44 W14G20    29.83F
WILMINGTON     SUNNY     84  65  52 SW13G24   29.85F
$$

VAZ048-222100-
ELSEWHERE

CITY           SKY/WX    TMP DP  RH WIND       PRES   REMARKS
HARRISBURG PA  LGT RAIN  53  48  83 N5        29.98R
BALTIMORE      LGT RAIN  55  54  96 N7        29.95F
ANNAPOLIS      LGT RAIN  56  53  90 N7        29.94F
ANDREWS AFB    CLOUDY    54  52  94 N8        29.95R
PHILADELPHIA   LGT RAIN  53  50  89 N6        29.96F FOG
HENDERSON NC   SUNNY     80  57  46 SW17      29.79F
GREENSBORO     PTSUNNY   80  58  46 SW16G29   29.79F
ROCKY MOUNT    MOSUNNY   86  60  41 SW13G25   29.78F
$$

VAZ100-222100-
MARINE

STATION/POSITION TIME  TEMP    WIND        PRES    WAVE   SWELL
                       AIR SEA DIR/SP/G            HT/PER HT/PER
                 (UTC) (F)     (DEG/KT/KT) (MB)    (FT/S) (FT/S)
CAPE MAY NJ      1948   55 56   30/  4/  6 1013.2F
LEWES DE         1948   53 55   80/  8/  9 1013.4S
15NM E FENWICK I 1850   51 53   20/ 16/ 17 1013.7    5/11   3/11
OCEAN-CITY-INLET 1942   52 57   70/  6/ 12 1013.6F
WACHAPREAGUE VA  1948   56 66   30/ 16/ 22 1011.7F
THOMAS POINT MD  2000   55 60   20/ 14/ 16   N/A
GOOSES REEF MD   2000   56 56   20/ 16/ 19 1013.9    2/ 3
COVE POINT MD    1948   56      50/ 10/ 15 1013.9S
SOLOMONS ISLAND  1942   57 62   20/  9/ 11   N/A
BISHOPS HEAD MD  1948   58 65   30/ 14/ 16 1013.0F
PINEY POINT MD   1948           40/  8/  9   N/A
POTOMAC MD       1950   58      40/ 10/ 14 1011.8F
CAMBRIDGE MD     1948   56 65   10/ 10/ 12 1012.8S
LEWISETTA VA     1948   58 65   30/ 10/ 15 1012.4F
RAPPAHANNOCK LGT 1948           30/ 15/ 18 1012.4F
STINGRAY PT      1950   59      40/ 14/ 17 1011.9F
YORK RVR RNG VA  1948   60      50/ 17/ 19 1010.5F
YORKTOWN VA      1948   61 66   40/ 12/ 16 1010.6F
JAMESTOWN VA     1950   62      20/  8/ 12   N/A
DOMINION TERM VA 1948   63      50/  7/ 12 1010.3F
KIPTOPEKE VA     1948      63   70/ 12/ 18   N/A
CHES BAY BRIDGE  1948   58 61   50/ 19/ 21 1010.3F
CAPE HENRY VA    1948   56      40/ 20/ 24   N/A
WILLOUBY STN VA  1948   60      40/ 15/ 17 1011.5F
S CRANEY ISL VA  1948   62      40/ 16/ 19 1009.9F
CAPE HENRY BUOY  1942      60                N/A     4/11   2/11
1ST LANDING BUOY 2000   59 63              1010.6    3/ 3
CAPE CHARLES BUO 1951      60                N/A     4/10   2/11
64NM E OF VA BCH 1950   61 59  310/  6/  8 1010.8F   4/ 6   3/ 6
DUCK PIER NC     1948   78 54  170/  6/  9 1008.8F
44100 DUCK FRF   1935      64                N/A     3/11   2/11
44056 DUCK FRF   1930      60                N/A     3/11   2/11
OREGON INLET NC  1942   74 75  190/ 19/ 22 1009.8F
HATTERAS NC      1948   74 70  210/ 12/ 19 1010.9F
DIAMOND SHLS NC  1950   76 75  230/ 21/ 25 1011.3F   5/ 5   2/11
CAPE LOOKOUT NC  1900   75     210/ 13/ 17 1011.9F
$$




USA.gov is the U.S. government's official web portal to all federal, state and local government web resources and services.